www.pogodaiklimat.ru
ПОГОДА в Бакае
Время
и дата
15:35 06.06
15:55 06.06
16:15 06.06
16:35 06.06
16:55 06.06
17:15 06.06
17:35 06.06
17:55 06.06
18:15 06.06
18:35 06.06
18:55 06.06
19:15 06.06
19:35 06.06
19:55 06.06
20:15 06.06
20:35 06.06
20:55 06.06
21:15 06.06
21:35 06.06
21:55 06.06
22:15 06.06
22:35 06.06
22:55 06.06
23:15 06.06
23:35 06.06
23:55 06.06
00:15 07.06
00:35 07.06
00:55 07.06
01:15 07.06
01:35 07.06
01:55 07.06
02:15 07.06
02:35 07.06
02:55 07.06
03:15 07.06
03:35 07.06
03:55 07.06
04:15 07.06
04:35 07.06
04:55 07.06
05:15 07.06
05:35 07.06
05:55 07.06
06:15 07.06
06:35 07.06
06:55 07.06
07:15 07.06
Ветер
(напр.,м/с)
Видим. Явления Облачность Т
(С)
Тd
(С)
f
(%)
Тe
(С)
Тes
(С)
Комфортность P
(гПа)
Po
(гПа)
Тmin
(С)
Tmax
(С)
R
(мм)
R24
(мм)
S
(см)
Ю 4
{8}
16 км ясно +35.0 -5.0 7 +31 +41 жарко 969.7
ЮЗ 7 14 км ясно +35.0 -4.0 8 +31 +35 жарко 969.7
З 7 14 км ясно +35.0 -4.0 8 +31 +34 жарко 969.4
ЮЗ 5
{9}
14 км ясно +34.0 -3.0 9 +30 +36 жарко 969.1
ЮЗ 5
{10}
14 км ясно +34.0 -3.0 9 +30 +36 жарко 969.1
ЮЗ 7
{12}
14 км ясно +34.0 -5.0 8 +30 +31 жарко 969.1
ЮЗ 7
{11}
16 км ясно +34.0 -6.0 7 +30 +31 жарко 969.1
ЮЗ 7 14 км ясно +33.0 -8.0 7 +29 +30 жарко 969.1
ЮЗ 6
{10}
14 км ясно +32.0 -8.0 7 +28 +29 жарко 969.4
ЮЗ 5
{9}
14 км ясно +32.0 -5.0 9 +28 +29 жарко 969.4
ЮЗ 6 14 км ясно +31.0 -5.0 9 +27 +28 жарко 969.7
ЮЗ 6 14 км ясно +30.0 -5.0 10 +26 +27 жарко 969.7
ЮЗ 4
{7}
11 км ясно +29.0 -5.0 11 +26 +26 жарко 970.1
ЮЗ 4 16 км ясно +28.0 -5.0 11 +25 +25 комфорт 970.1
ЮЗ 3 16 км ясно +27.0 -4.0 13 +24 +24 комфорт 970.4
ЮВ 2 11 км ясно +26.0 -3.0 15 +24 +24 комфорт 970.7
Ю 3 13 км ясно +25.0 -2.0 17 +23 +23 комфорт 970.7
Ю 4 11 км ясно +25.0 -2.0 17 +23 +23 комфорт 971.0
ЮЗ 4 14 км ясно +24.0 -1.0 19 +23 +23 комфорт 971.4
ЮЗ 5 16 км ясно +25.0 -3.0 15 +23 +23 комфорт 971.4
ЮЗ 6 14 км ясно +24.0 -5.0 14 +22 +22 комфорт 971.4
ЮЗ 5 16 км ясно +24.0 -4.0 15 +22 +22 комфорт 971.7
нст 2 14 км ясно +22.0 -1.0 21 +21 +21 комфорт 971.7
штиль 0 16 км ясно +24.0 -4.0 15 +22 +22 комфорт 972.4
Ю 3 16 км ясно +23.0 -4.0 16 +21 +21 комфорт 972.4
ЮЗ 4 14 км ясно +21.0 0.0 25 +21 +21 комфорт 972.4
С 4 14 км ясно +21.0 -1.0 23 +21 +21 комфорт 972.7
штиль 0 16 км ясно +22.0 -4.0 17 +21 +21 комфорт 972.7
В 3 16 км ясно +21.0 -6.0 16 +21 +21 комфорт 973.0
Ю 3 16 км 2/2 1440 м +21.0 -3.0 20 +21 +21 комфорт 973.0
ЮЗ 3 14 км 2/2 1350 м +18.0 -3.0 24 +18 +18 973.0
СВ 2 14 км 2/2 1380 м +19.0 -2.0 24 +20 +20 973.0
штиль 0 16 км 5/5 1410 м +19.0 -4.0 21 +19 +19 973.0
СВ 2 16 км 5/5 1380 м +18.0 -5.0 20 +19 +19 973.3
СВ 2 16 км 5/5 1410 м +18.0 -6.0 19 +19 +19 973.7
СВ 2 16 км 8/8 1380 м +18.0 -6.0 19 +19 +19 973.7
СВ 3 16 км 10/10 1410 м +19.0 -6.0 18 +19 +19 973.7
СВ 2 16 км 10/10 1440 м +17.0 -7.0 19 +17 +17 973.7
СВ 3 16 км 10/10 1410 м +18.0 -7.0 18 +18 +18 974.0
С 4 16 км 10/10 1470 м +17.0 -7.0 19 +17 +17 974.0
С 3 14 км 10/10 1440 м +17.0 -7.0 19 +17 +17 974.0
С 3 13 км 5/5 1440 м +17.0 -7.0 19 +17 +17 974.0
СВ 3 16 км ясно +17.0 -6.0 20 +17 +17 974.3
штиль 0 16 км ясно +18.0 -5.0 20 +18 +18 974.6
штиль 0 16 км ясно +19.0 -6.0 18 +19 +19 974.6
штиль 0 13 км ясно +21.0 -6.0 16 +20 +20 974.6
СВ 3 14 км ясно +22.0 -6.0 15 +21 +21 комфорт 975.0
штиль 0 16 км ясно +23.0 -5.0 15 +21 +24 комфорт 975.0
Местоположение метеостанции Buckeye Municipal Airport: широта 33.4204 долгота -112.6862 высота над уровнем моря 311 м.
В архиве по умолчанию представлена погода в Бакае за последние 1-2 суток. Обновление информации о фактической погоде в базе происходит ежечасно! Архивные данные за месяц целиком и за предыдущие месяцы Вы можете получить, выбрав интересующий диапазон дат из раскрывающегося списка и нажав кнопку "Ввод!".
Внимание! Архив погоды МЕТАР в базе сайта по станциям, не включенным в климатический монитор, хранится не более 60 дней. Нет смысла пытаться выбрать более раннюю дату.
*Определитесь, кто Вы:
Внимание! Время в таблицах - местное (без учета летнего времени). Для получения всемирного времени необходимо вычесть поправку, которая равна -7 ч.
Смотрите также архив погоды в соседних городах и на ближайших метеорологических станциях:
Партнеры нашего сайта:      
Пояснения к столбцам:
  • Ветер - указаны скорость ветра в м/с - средняя за 10 мин, порывы в срок и между сроками (в фигурных скобках) и направление, откуда дует ветер: С - северный,
  • СВ - северо-восточный, В - восточный, ЮВ - юго-восточный, Ю - южный, ЮЗ - юго-западный, З - западный, СЗ - северо-западный.
  • Видимость - горизонтальная дальность видимости в метрах или километрах. При видимости от 1 до 10 км при отсутствии осадков обычно наблюдается дымка, при ухудшении видимости до 1 км и менее - туман. В сухую погоду видимость может ухудшаться дымом, пылью или мглою.
  • Явления - указаны атмосферные явления, наблюдавшиеся в срок или в последний час перед сроком; фигурными скобками обозначены явления, наблюдавшиеся между сроками (за 1-3 часа до срока); квадратными скобками обозначены град или гололедные отложения с указанием их диаметра в мм.
  • Облачность - указаны через наклонную черту общая и нижняя облачность в баллах и высота нижней границы облаков в метрах; квадратными скобками обозначены формы облаков: Ci - перистые, Cs - перисто-слоистые, Cc - перисто-кучевые, Ac - высококучевые, As - высокослоистые, Sc - слоисто-кучевые, Ns - слоисто-дождевые, Cu - кучевые, Cb - кучево-дождевые. Подробнее классификацию облаков см. в Атласе облаков (PDF).
  • T - Температура воздуха - температура, измеренная на высоте 2 м над землей.
  • Td - Температура точки росы - температура, при понижении до которой содержащийся в воздухе водяной пар достигнет насыщения.
  • f - Относительная влажность воздуха - влажноcть воздуха, измеренная на высоте 2 м над землей.
  • Te - Эффективная температура - температура, которую ощущает одетый по сезону человек в тени. Характеристика душности погоды. При расчете учитывается влияние влажности воздуха и скорости ветра на теплоощущения человека.
  • Tes - Эффективная температура на солнце - температура, которую ощущает человек, с поправкой на солнечный нагрев. Характеристика знойности погоды. Зависит от высоты солнца над горизонтом, облачности и скорости ветра. Ночью, в пасмурную погоду, а также при ветре 12 м/с и более поправка равна нулю.
  • P - Атмосферное давление - приведенное к уровню моря атмосферное давление.
  • Po - Атмосферное давление - измеренное на уровне метеостанции атмосферное давление.
  • Tmin - Минимальная температура - минимум температуры воздуха на высоте 2 м над землей.
  • Tmax - Максимальная температура - максимум температуры воздуха на высоте 2 м над землей.
  • R - Количество осадков - Количество выпавших осадков за период времени, мм. При наведении курсора мыши на число - период времени, за который выпало указанное количество осадков.
  • R24 - Количество осадков - Количество выпавших осадков за 24 часа, мм.
  • S - Снежный покров - Высота снежного покрова, см. При наведении курсора мыши на число - состояние снежного покрова и степень покрытия местности в баллах.